PDT,Max TemperatureF,Mean TemperatureF,Min TemperatureF,Max Dew PointF,MeanDew PointF,Min DewpointF,Max Humidity, Mean Humidity, Min Humidity, Max Sea Level PressureIn, Mean Sea Level PressureIn, Min Sea Level PressureIn, Max VisibilityMiles, Mean VisibilityMiles, Min VisibilityMiles, Max Wind SpeedMPH, Mean Wind SpeedMPH, Max Gust SpeedMPH,PrecipitationIn, CloudCover, Events, WindDirDegrees
2014-3-1,68,60,51,54,49,45,100,76,52,29.81,29.64,29.47,10,10,10,28,11,40,0.01,7,Rain,108
2014-3-2,59,55,50,55,52,49,100,86,72,30.15,29.96,29.79,10,7,1,13,3,15,0.01,7,Rain,227
2014-3-3,58,55,52,53,52,50,100,90,80,30.12,30.07,30.02,10,6,1,15,6,18,0.38,8,Rain,158
2014-3-4,64,58,51,55,53,51,100,84,67,30.10,30.06,30.02,10,9,2,9,3,11,T,8,Fog-Rain,134
2014-3-5,64,60,55,57,55,54,100,86,72,30.08,30.02,29.94,10,5,2,14,4,18,0.37,8,Rain,176
2014-3-6,63,55,47,55,50,46,100,80,60,30.18,30.10,30.01,10,6,0,18,5,23,T,4,Fog-Rain,230
2014-3-7,70,56,41,50,45,40,100,69,37,30.17,30.12,30.06,10,9,2,12,4,15,0.00,2,Fog,156
2014-3-8,72,56,39,51,44,39,100,70,40,30.17,30.13,30.10,10,6,0,10,3,13,T,3,Fog,230
2014-3-9,71,62,52,54,51,48,96,72,47,30.16,30.10,30.04,10,10,10,9,4,11,0.00,6,,174
2014-3-10,69,59,49,54,46,39,93,64,35,30.22,30.15,30.07,10,10,9,23,10,31,T,4,Rain,314
2014-3-11,74,60,46,41,31,18,77,47,16,30.21,30.08,30.00,10,10,10,24,10,34,0.00,0,,2
2014-3-12,76,61,46,54,26,19,65,40,14,30.12,30.05,29.99,10,10,10,25,10,32,0.00,0,,7
2014-3-13,78,60,42,48,37,24,93,55,15,30.04,30.00,29.93,10,10,9,9,6,,0.00,0,,296
2014-3-14,76,58,40,53,44,40,100,68,36,30.20,30.09,30.02,10,5,0,13,3,15,0.00,4,Fog,234
2014-3-15,80,61,42,50,46,38,100,62,23,30.28,30.24,30.20,10,10,10,12,4,16,0.00,0,,216
2014-3-16,76,58,39,50,44,39,100,68,35,30.29,30.25,30.14,10,6,0,18,5,26,0.00,1,Fog,174
2014-3-17,71,58,45,45,42,40,93,63,33,30.18,30.07,29.95,10,10,10,18,7,22,0.00,2,,343
2014-3-18,73,56,38,42,35,24,92,55,17,29.96,29.92,29.88,10,10,10,15,5,18,0.00,0,,263
2014-3-19,75,56,37,41,36,29,92,56,20,30.06,30.01,29.95,10,10,10,13,3,15,0.00,2,,239
2014-3-20,75,58,41,45,41,36,93,60,27,30.03,29.98,29.91,10,10,8,14,4,17,0.00,2,,176
2014-3-21,68,55,42,49,44,41,100,74,48,29.99,29.94,29.91,10,5,0,16,4,19,0.00,3,Fog,155
2014-3-22,70,54,37,48,42,37,100,72,44,30.09,30.02,29.96,10,4,0,15,5,17,0.00,2,Fog,213
2014-3-23,73,59,44,50,45,43,100,69,38,30.16,30.11,30.06,10,8,3,12,4,14,0.00,4,,140
2014-3-24,77,58,38,45,41,33,100,61,21,30.15,30.08,29.99,10,6,0,13,4,16,0.00,1,Fog,178
2014-3-25,62,49,36,54,43,36,100,82,64,30.03,29.95,29.83,10,6,0,16,4,19,0.09,4,Fog-Rain,283
2014-3-26,61,54,47,51,47,45,100,81,62,29.92,29.81,29.77,10,8,2,21,6,24,0.32,6,Rain,226
2014-3-27,59,52,45,52,48,45,100,84,67,30.12,30.02,29.94,10,6,0,13,2,18,0.01,8,Fog-Rain,217
2014-3-28,62,57,51,54,52,51,100,84,67,30.16,30.11,30.08,10,8,3,18,9,25,0.03,8,Rain,173
2014-3-29,57,50,43,55,52,44,100,89,77,30.07,30.02,29.98,10,7,2,16,6,22,0.49,7,Rain,195
2014-3-30,61,50,38,46,41,35,100,74,47,30.10,30.06,30.02,10,5,0,20,5,23,0.00,3,Fog,277
2014-3-31,52,46,40,46,43,40,100,87,74,30.04,29.89,29.80,10,8,2,22,5,28,0.67,6,Rain,166